Hettinger, ND

4:32 PM MST on February 22, 2018 (GMT -0700)
Hettinger Municipal

Weather History for KHEI - December, 2013

Change the Weather History Date:

Tuesday, December 31, 2013

  Actual Average Record
Temperature  
Mean Temperature 5 °F -  
Max Temperature 10 °F 28 °F 53 °F (1997)
Min Temperature -1 °F 5 °F -42 °F (2017)
Degree Days  
Heating Degree Days 60 49  
Month to date heating degree days 1698 1450  
Since 1 July heating degree days 3722 3579  
Moisture  
Dew Point -1 °F    
Average Humidity 82    
Maximum Humidity 87    
Minimum Humidity 79    
Precipitation  
Precipitation 0.02 in 0.01 in 0.16 in (2011)
Month to date precipitation 0.15 0.31  
Year to date precipitation 24.88 16.10  
Sea Level Pressure  
Sea Level Pressure 30.09 in    
Wind  
Wind Speed 13 mph (East)    
Max Wind Speed 20 mph    
Max Gust Speed 23 mph    
Visibility 3 miles    
Events Fog , Snow    
T = Trace of Precipitation, MM = Missing Value Source: NWS Daily Summary

Daily Weather History Graph

Daily Weather History Graph

Search for Another Location

Airport or City:

Trip Planner

Search our weather history database for the weather conditions in past years. The results will help you decide how hot, cold, wet, or windy it might be!

Date:

Astronomy

Dec. 31, 2013 Rise Set
Actual Time 7:32 AM MST 4:15 PM MST
Civil Twilight 6:58 AM MST 4:49 PM MST
Nautical Twilight 6:20 AM MST 5:27 PM MST
Astronomical Twilight 5:43 AM MST 6:03 PM MST
Moon 6:25 AM MST (12/31) 3:56 PM MST (12/31)
Length of Visible Light 9h 51m
Length of Day
8h 42m
Waning Crescent, 1% of the Moon is Illuminated
Dec 31
Waning Crescent
Jan 1
New
Jan 7
First Quarter
Jan 15
Full
Jan 23
Last Quarter

Hourly Weather History & Observations

Time (MST) Temp. Windchill Dew Point Humidity Pressure Visibility Wind Dir Wind Speed Gust Speed Precip Events Conditions
12:03 AM 10.0 °F -2.9 °F 6.1 °F 84% 29.99 in 2.0 mi ESE 9.2 mph - 0.00 in Snow Light Snow
12:28 AM 10.0 °F -3.7 °F 6.1 °F 84% 29.97 in 1.8 mi ESE 10.4 mph - 0.00 in Snow Light Snow
12:41 AM 9.0 °F -6.6 °F 5.0 °F 84% 29.97 in 2.0 mi East 12.7 mph - 0.00 in Snow Light Snow
12:48 AM 10.4 °F -3.3 °F 5.0 °F 79% 29.96 in 2.5 mi East 10.4 mph - 0.00 in Snow Light Snow
12:53 AM 9.0 °F -5.9 °F 5.0 °F 84% 30.11 in 2.5 mi East 11.5 mph - 0.00 in Snow Light Snow
1:53 AM 9.0 °F -7.3 °F 5.0 °F 84% 30.09 in 2.5 mi East 13.8 mph - 0.00 in Snow Light Snow
2:08 AM 9.0 °F -6.6 °F 6.1 °F 88% 29.94 in 3.0 mi East 12.7 mph - 0.00 in Snow Light Snow
2:17 AM 10.0 °F -6.5 °F 6.1 °F 84% 29.94 in 2.5 mi East 15.0 mph - 0.00 in Snow Light Snow
2:24 AM 10.0 °F -5.2 °F 6.1 °F 84% 29.94 in 3.0 mi East 12.7 mph - 0.00 in Snow Light Snow
2:38 AM 9.0 °F -8.5 °F 5.0 °F 84% 29.95 in 2.0 mi East 16.1 mph - 0.00 in Snow Light Snow
2:53 AM 9.0 °F -7.9 °F 5.0 °F 84% 30.10 in 1.5 mi East 15.0 mph - 0.00 in Snow Light Snow
3:25 AM 9.0 °F -7.9 °F 5.0 °F 84% 29.95 in 0.8 mi East 15.0 mph - 0.00 in Snow Light Snow
3:49 AM 8.6 °F -8.9 °F 3.2 °F 79% 29.94 in 1.0 mi East 16.1 mph - 0.01 in Snow Light Snow
3:53 AM 8.1 °F -10.2 °F 3.9 °F 83% 30.09 in 1.2 mi East 17.3 mph - 0.01 in Snow Light Snow
4:53 AM 6.1 °F -10.9 °F 1.9 °F 83% 30.12 in 0.8 mi East 13.8 mph - 0.00 in Snow Light Snow
5:01 AM 6.1 °F -10.9 °F 1.9 °F 83% 29.96 in 0.8 mi East 13.8 mph - 0.00 in Snow Light Snow
5:29 AM 5.0 °F -13.6 °F 1.0 °F 84% 29.97 in 0.8 mi ENE 16.1 mph - 0.01 in Snow Light Snow
5:46 AM 5.0 °F -13.0 °F -0.0 °F 80% 29.98 in 1.0 mi East 15.0 mph - 0.01 in Snow Light Snow
5:53 AM 3.9 °F -15.0 °F -0.0 °F 84% 30.14 in 1.0 mi ENE 16.1 mph - 0.01 in Snow Light Snow
6:05 AM 3.9 °F -15.0 °F -0.0 °F 84% 29.98 in 1.2 mi East 16.1 mph - 0.00 in Snow Light Snow
6:39 AM 3.0 °F -16.1 °F -0.9 °F 84% 30.00 in 3.0 mi ENE 16.1 mph - 0.00 in Snow Light Snow
6:53 AM 3.0 °F -14.1 °F -2.0 °F 80% 30.19 in 6.0 mi East 12.7 mph - 0.00 in   Haze
7:53 AM 1.9 °F -18.1 °F -2.0 °F 83% 30.19 in 6.0 mi East 17.3 mph - N/A   Overcast
8:31 AM 1.9 °F -14.7 °F -2.0 °F 83% 30.05 in 6.0 mi East 11.5 mph - N/A   Overcast
8:53 AM 1.9 °F -14.7 °F -2.9 °F 80% 30.24 in 5.0 mi East 11.5 mph - N/A   Haze
9:44 AM 1.9 °F -14.7 °F -2.0 °F 83% 30.06 in 2.5 mi East 11.5 mph - 0.00 in Snow Light Snow
9:53 AM 1.9 °F -14.7 °F -2.9 °F 80% 30.24 in 3.0 mi East 11.5 mph - 0.00 in Snow Light Snow
10:38 AM 1.9 °F -13.8 °F -2.9 °F 80% 30.07 in 2.5 mi East 10.4 mph - 0.00 in Snow Light Snow
10:53 AM 1.9 °F -15.5 °F -2.9 °F 80% 30.25 in 2.5 mi East 12.7 mph - 0.00 in Snow Light Snow
11:15 AM 1.9 °F -16.2 °F -2.9 °F 80% 30.06 in 1.8 mi East 13.8 mph - 0.00 in Snow Light Snow
11:53 AM 1.9 °F -16.2 °F -4.0 °F 76% 30.23 in 1.0 mi ESE 13.8 mph - 0.00 in Snow Light Snow
12:10 PM 1.9 °F -14.7 °F -4.0 °F 76% 30.05 in 2.5 mi ESE 11.5 mph - 0.00 in Snow Light Snow
12:12 PM 1.9 °F -12.9 °F -4.0 °F 76% 30.05 in 3.0 mi ESE 9.2 mph - 0.00 in   Haze
12:23 PM 1.9 °F -16.2 °F -2.9 °F 80% 30.04 in 1.8 mi ESE 13.8 mph - 0.00 in Snow Light Snow
12:34 PM 1.9 °F -16.2 °F -2.9 °F 80% 30.03 in 0.5 mi SE 13.8 mph - 0.00 in Snow Snow
12:53 PM 1.9 °F -15.5 °F -2.9 °F 80% 30.20 in 1.0 mi ESE 12.7 mph - 0.00 in Snow Light Snow
1:53 PM 1.9 °F -15.5 °F -2.9 °F 80% 30.19 in 1.8 mi ESE 12.7 mph - 0.00 in Snow Light Snow
2:00 PM 1.9 °F -14.7 °F -2.9 °F 80% 30.01 in 2.0 mi ESE 11.5 mph - 0.00 in Snow Light Snow
2:11 PM 1.9 °F -16.2 °F -2.9 °F 80% 30.01 in 4.0 mi ESE 13.8 mph - 0.00 in   Haze
2:36 PM 1.9 °F -16.2 °F -2.9 °F 80% 30.01 in 2.0 mi ESE 13.8 mph - 0.00 in Snow Light Snow
2:53 PM 1.9 °F -16.2 °F -2.9 °F 80% 30.19 in 2.5 mi East 13.8 mph - 0.00 in Snow Light Snow
3:13 PM 1.9 °F -16.9 °F -2.9 °F 80% 30.01 in 1.2 mi ESE 15.0 mph - 0.00 in Snow Light Snow
3:24 PM 1.9 °F -16.9 °F -2.9 °F 80% 30.01 in 1.0 mi East 15.0 mph - 0.00 in Snow Light Snow
3:53 PM 1.0 °F -19.3 °F -2.9 °F 83% 30.21 in 0.5 mi ESE 17.3 mph - 0.00 in Fog , Snow Light Snow
4:29 PM 1.9 °F -16.2 °F -2.9 °F 80% 30.04 in 1.5 mi ESE 13.8 mph - 0.00 in Snow Light Snow
4:53 PM 1.9 °F -13.8 °F -2.9 °F 80% 30.23 in 1.2 mi East 10.4 mph - 0.00 in Snow Light Snow
5:32 PM 1.9 °F -16.9 °F -2.0 °F 83% 30.03 in 2.0 mi ESE 15.0 mph - 0.00 in Snow Light Snow
5:53 PM 1.9 °F -18.1 °F -2.9 °F 80% 30.21 in 4.0 mi SE 17.3 mph - 0.00 in   Haze
6:42 PM 1.0 °F -19.3 °F -4.0 °F 79% 30.04 in 7.0 mi ESE 17.3 mph - N/A   Overcast
6:53 PM 1.0 °F -17.3 °F -4.0 °F 79% 30.25 in 9.0 mi ESE 13.8 mph - N/A   Overcast
7:53 PM -0.0 °F -16.3 °F -4.0 °F 83% 30.26 in 5.0 mi SE 10.4 mph - N/A   Overcast
8:53 PM -0.0 °F -17.1 °F -5.1 °F 79% 30.28 in 6.0 mi ESE 11.5 mph - N/A   Haze
9:53 PM -0.9 °F -18.3 °F -5.1 °F 83% 30.27 in 3.0 mi SE 11.5 mph - N/A   Overcast
10:03 PM -0.9 °F -17.4 °F -5.1 °F 83% 30.07 in 4.0 mi SE 10.4 mph - N/A   Overcast
10:53 PM -0.9 °F -17.4 °F -5.1 °F 83% 30.28 in 4.0 mi SSE 10.4 mph - N/A   Overcast
11:53 PM -0.9 °F -14.1 °F -5.1 °F 83% 30.29 in 6.0 mi SSE 6.9 mph - N/A   Overcast